Location: Newark
(54.2500°N, 9.1833°E)
Time: 19:50:46
(UTC+00:00)

Vanguard 3 - Pass Details

Date: 21 December 2019
Orbit: 507 x 3263 km, 33.4° (Epoch: 23 January)

Event Time Altitude Azimuth Distance (km) Brightness Sun altitude
Rises 05:50:57 0° 216° (SW) 3,067 10.0 -14.7°
Reaches altitude 10° 05:55:48 10° 173° (S) 2,645 10.2 -14.0°
Maximum altitude 05:56:38 10° 165° (SSE) 2,719 10.3 -13.9°
Drops below altitude 10° 05:57:30 10° 157° (SSE) 2,837 10.6 -13.8°
Sets 06:04:32 0° 121° (ESE) 4,641 13.0 -12.8°
